Location: Arrodets-la-Barthe
(43.0306°N, 0.2829°E)
Time: 23:28:16
(UTC+00:00)

Iridium 4 Rocket - Pass Details

Date: 30 May 2022
Orbit: 585 x 902 km, 86.9° (Epoch: 03 July)

Event Time Altitude Azimuth Distance (km) Brightness Sun altitude
Rises 20:53:27 0° 21° (NNE) 3,057 7.0 -12.7°
Reaches altitude 10° 20:57:42 10° 59° (ENE) 2,223 5.8 -13.2°
Maximum altitude 20:58:57 11° 73° (ENE) 2,188 5.6 -13.3°
Drops below altitude 10° 21:00:13 10° 88° (E) 2,272 5.6 -13.5°
Enters shadow 21:00:45 - 94° (E) 2,338 5.6 -13.6°
